TimeEDT,TemperatureF,Dew PointF,Humidity,Sea Level PressureIn,VisibilityMPH,Wind Direction,Wind SpeedMPH,Gust SpeedMPH,PrecipitationIn,Events,Conditions,WindDirDegrees,DateUTC
12:54 AM,46.0,39.9,79,30.23,10.0,Calm,Calm,-,N/A,,Clear,0,2013-05-27 04:54:00
1:54 AM,44.1,39.9,85,30.24,10.0,Calm,Calm,-,N/A,,Clear,0,2013-05-27 05:54:00
2:54 AM,42.1,37.9,85,30.24,10.0,Calm,Calm,-,N/A,,Clear,0,2013-05-27 06:54:00
3:54 AM,42.1,39.0,89,30.25,10.0,Calm,Calm,-,N/A,,Clear,0,2013-05-27 07:54:00
4:54 AM,39.9,37.9,93,30.25,10.0,Calm,Calm,-,N/A,,Clear,0,2013-05-27 08:54:00
5:54 AM,39.9,37.9,93,30.26,10.0,Calm,Calm,-,N/A,,Clear,0,2013-05-27 09:54:00
6:54 AM,45.0,42.1,90,30.26,10.0,Calm,Calm,-,N/A,,Clear,0,2013-05-27 10:54:00
7:54 AM,55.9,43.0,62,30.27,10.0,Calm,Calm,-,N/A,,Clear,0,2013-05-27 11:54:00
8:54 AM,61.0,36.0,39,30.27,10.0,West,3.5,-,N/A,,Clear,260,2013-05-27 12:54:00
9:54 AM,64.9,33.1,31,30.27,10.0,WSW,8.1,-,N/A,,Clear,250,2013-05-27 13:54:00
10:54 AM,66.0,33.1,29,30.26,10.0,NW,3.5,-,N/A,,Clear,310,2013-05-27 14:54:00
11:54 AM,69.1,35.1,29,30.25,10.0,WNW,8.1,-,N/A,,Clear,290,2013-05-27 15:54:00
12:54 PM,70.0,34.0,27,30.23,10.0,Variable,5.8,-,N/A,,Clear,0,2013-05-27 16:54:00
1:54 PM,71.1,36.0,28,30.21,10.0,WSW,6.9,-,N/A,,Clear,240,2013-05-27 17:54:00
2:54 PM,72.0,36.0,27,30.19,10.0,WSW,11.5,17.3,N/A,,Clear,250,2013-05-27 18:54:00
3:54 PM,72.0,35.1,26,30.18,10.0,Variable,4.6,-,N/A,,Clear,0,2013-05-27 19:54:00
4:54 PM,72.0,36.0,27,30.16,10.0,SW,9.2,-,N/A,,Clear,230,2013-05-27 20:54:00
5:54 PM,71.1,37.9,30,30.17,10.0,Variable,5.8,-,N/A,,Clear,0,2013-05-27 21:54:00
6:54 PM,69.1,39.0,33,30.16,10.0,SW,6.9,-,N/A,,Clear,230,2013-05-27 22:54:00
7:54 PM,64.9,43.0,45,30.17,10.0,SW,3.5,-,N/A,,Clear,220,2013-05-27 23:54:00
8:54 PM,63.0,42.1,46,30.17,10.0,SW,3.5,-,N/A,,Clear,220,2013-05-28 00:54:00
9:54 PM,60.1,43.0,53,30.19,10.0,South,3.5,-,N/A,,Clear,190,2013-05-28 01:54:00
10:54 PM,57.9,46.0,65,30.20,10.0,Calm,Calm,-,N/A,,Clear,0,2013-05-28 02:54:00
11:54 PM,55.9,46.0,69,30.21,10.0,Calm,Calm,-,N/A,,Clear,0,2013-05-28 03:54:00